1494255600.9,47694,17.44,72858.8,-1.83,-5.11,-4.89,0,*52
1494255602.17,47695,17.44,72860.3,-1.83,-5.27,-5.27,0,*53
1494255603.45,47696,17.44,72862.5,-1.83,-5.77,-5.69,0,*5F
1494255604.7,47697,17.44,72860.8,-1.85,-5.23,-5.07,0,*51
1494255605.98,47698,17.44,72862.8,-1.83,-4.89,-4.89,0,*5E
1494255607.25,47699,17.44,72862.0,-1.83,-5.11,-5.15,0,*5B
1494255608.53,47700,17.44,72866.8,-1.83,-5.15,-5.31,0,*58
1494255609.81,47701,17.44,72862.5,-1.83,-5.27,-5.19,0,*52
1494255611.06,47702,17.44,72858.8,-1.83,-5.03,-4.99,0,*5E
1494255612.27,47703,17.44,72852.3,-1.83,-5.43,-5.39,0,*50
1494255613.56,47704,17.38,72848.5,-1.83,-5.31,-5.27,0,*5D
1494255614.75,47705,17.44,72854.8,-1.81,-5.43,-5.39,0,*54
1494255615.97,47706,17.44,72854.3,-1.81,-5.65,-5.51,0,*5D
1494255617.19,47707,17.38,72848.3,-1.81,-5.39,-5.31,0,*53
1494255618.39,47708,17.44,72850.0,-1.81,-5.55,-5.43,0,*53
1494255619.64,47709,17.38,72844.0,-1.81,-5.15,-5.03,0,*52
1494255620.86,47710,17.44,72854.0,-1.77,-5.43,-5.35,0,*55
1494255622.15,47711,17.44,72850.5,-1.77,-5.89,-5.61,0,*53
1494255623.43,47712,17.44,72854.0,-1.77,-5.89,-5.61,0,*50
1494255624.65,47713,17.38,72858.8,-1.81,-5.69,-5.43,0,*56
1494255625.87,47714,17.44,72862.3,-1.81,-6.05,-5.65,0,*5C
1494255627.13,47715,17.44,72850.0,-1.77,-5.85,-5.55,0,*5C
1494255628.35,47716,17.44,72852.0,-1.81,-5.97,-5.69,0,*5A
1494255629.57,47717,17.44,72838.8,-1.81,-5.69,-5.39,0,*5F
1494255630.85,47718,17.38,72838.5,-1.77,-5.69,-5.31,0,*51
1494255632.1,47719,17.38,72840.8,-1.81,-5.31,-5.27,0,*53
1494255633.36,47720,17.38,72838.3,-1.77,-5.47,-5.23,0,*55
1494255634.63,47721,17.38,72846.3,-1.77,-5.55,-5.23,0,*57
1494255635.89,47722,17.38,72844.8,-1.77,-5.47,-5.19,0,*5E
1494255637.14,47723,17.44,72858.8,-1.77,-5.47,-5.31,0,*55
1494255638.4,47724,17.44,72850.0,-1.77,-6.01,-5.85,0,*5C
1494255639.65,47725,17.38,72846.8,-1.75,-5.89,-5.69,0,*5E
1494255640.93,47726,17.38,72850.0,-1.77,-5.61,-5.23,0,*57
1494255642.16,47727,17.38,72844.3,-1.77,-5.97,-5.47,0,*5D
1494255643.44,47728,17.44,72848.8,-1.77,-5.61,-5.19,0,*50
1494255644.72,47729,17.44,72850.8,-1.77,-5.31,-4.89,0,*5C
1494255646.0,47730,17.44,72848.5,-1.77,-5.07,-4.81,0,*59
1494255647.29,47731,17.38,72842.5,-1.77,-5.31,-5.07,0,*52
1494255648.57,47732,17.38,72838.3,-1.77,-5.31,-5.11,0,*56
1494255649.86,47733,17.38,72836.5,-1.77,-5.19,-5.07,0,*5A
1494255651.08,47734,17.44,72846.3,-1.75,-5.61,-5.47,0,*54
1494255652.33,47735,17.38,72846.5,-1.75,-5.85,-5.69,0,*53
1494255653.59,47736,17.38,72844.0,-1.77,-6.01,-5.81,0,*5B
1494255654.82,47737,17.38,72846.5,-1.77,-5.55,-5.47,0,*52
1494255656.1,47738,17.38,72850.8,-1.77,-5.07,-4.93,0,*52
1494255657.37,47739,17.38,72846.0,-1.77,-5.73,-5.69,0,*54
1494255658.56,47740,17.44,72844.0,-1.81,-5.97,-6.05,0,*50
1494255659.8,47741,17.38,72828.0,-1.83,-5.55,-5.55,0,*5B
1494255661.06,47742,17.44,72838.5,-1.83,-4.85,-4.85,0,*58
1494255662.26,47743,17.38,72840.3,-1.81,-4.61,-4.49,0,*51
1494255663.51,47744,17.44,72842.3,-1.81,-5.19,-5.27,0,*51
1494255664.76,47745,17.38,72842.3,-1.81,-5.15,-5.19,0,*51
1494255665.97,47746,17.38,72854.3,-1.81,-4.99,-4.85,0,*53
1494255667.26,47747,17.38,72850.3,-1.77,-5.23,-5.23,0,*56
1494255668.48,47748,17.44,72856.8,-1.81,-5.89,-5.97,0,*5F
1494255669.73,47749,17.38,72856.0,-1.81,-5.31,-5.31,0,*51
1494255670.97,47750,17.38,72860.0,-1.81,-4.89,-4.89,0,*59
1494255672.25,47751,17.38,72858.0,-1.83,-4.89,-4.89,0,*5A
1494255673.47,47752,17.38,72858.5,-1.83,-5.39,-5.43,0,*54
1494255674.69,47753,17.38,72856.5,-1.83,-5.97,-5.97,0,*58
1494255675.91,47754,17.38,72858.3,-1.83,-6.43,-6.43,0,*5F
1494255677.13,47755,17.44,72844.0,-1.85,-6.27,-6.35,0,*5B
1494255678.38,47756,17.38,72838.3,-1.85,-5.81,-5.81,0,*5B
1494255679.62,47757,17.38,72844.0,-1.85,-5.07,-4.93,0,*56
1494255680.85,47758,17.38,72842.0,-1.85,-5.61,-5.55,0,*52
1494255682.1,47759,17.38,72850.8,-1.85,-5.23,-5.23,0,*54
1494255683.37,47760,17.38,72840.3,-1.87,-5.31,-5.31,0,*5C
1494255684.65,47761,17.38,72874.8,-1.87,-5.23,-5.31,0,*5E
1494255685.87,47762,17.38,72870.3,-1.87,-5.47,-5.55,0,*5D
1494255687.06,47763,17.38,72862.0,-1.89,-6.05,-6.13,0,*56
1494255688.31,47764,17.38,72850.3,-1.89,-7.43,-7.43,0,*56
1494255689.58,47765,17.38,72846.0,-1.91,-7.39,-7.39,0,*5E
1494255690.83,47766,17.38,72842.3,-1.93,-6.19,-6.19,0,*5F
1494255692.07,47767,17.38,72846.3,-1.95,-5.61,-5.47,0,*5C
1494255693.35,47768,17.38,72838.8,-1.95,-5.31,-5.31,0,*57
1494255694.62,47769,17.38,72828.5,-1.95,-5.07,-5.15,0,*55
1494255695.84,47770,17.44,72830.0,-1.95,-5.35,-5.43,0,*5F
1494255697.09,47771,17.38,72824.3,-1.95,-5.47,-5.61,0,*5B
1494255698.34,47772,17.38,72836.0,-1.93,-5.03,-5.11,0,*59
1494255699.61,47773,17.38,72842.8,-1.95,-5.69,-5.73,0,*56
1494255700.88,47774,17.38,72846.5,-1.95,-5.61,-5.73,0,*59
1494255702.14,47775,17.38,72842.0,-1.95,-5.73,-5.81,0,*56
1494255703.38,47776,17.38,72846.0,-1.95,-5.55,-5.55,0,*58
1494255704.62,47777,17.38,72838.0,-1.95,-6.23,-6.35,0,*5E
1494255705.86,47778,17.38,72826.0,-1.97,-6.23,-6.27,0,*50
1494255707.11,47779,17.38,72834.8,-1.97,-5.93,-5.93,0,*55
1494255708.33,47780,17.38,72858.8,-1.97,-5.31,-5.35,0,*57
1494255709.61,47781,17.38,72850.0,-1.99,-5.85,-5.89,0,*50
1494255710.85,47782,17.38,72842.0,-2.01,-5.61,-5.61,0,*5D
1494255712.1,47783,17.38,72838.3,-1.99,-5.31,-5.35,0,*5A
1494255713.3,47784,17.38,72840.5,-2.01,-5.35,-5.47,0,*5E
1494255714.52,47785,17.38,72844.5,-1.99,-5.35,-5.51,0,*5A
1494255715.79,47786,17.38,72846.5,-1.99,-5.65,-5.89,0,*59
1494255717.07,47787,17.38,72838.0,-1.99,-5.77,-5.65,0,*59
1494255718.32,47788,17.38,72838.0,-1.99,-5.97,-5.85,0,*56
1494255719.56,47789,17.38,72834.5,-2.01,-5.89,-5.77,0,*57
1494255720.78,47790,17.38,72838.8,-2.01,-5.77,-5.51,0,*5A
1494255722.06,47791,17.38,72832.3,-1.99,-5.85,-5.65,0,*53
1494255723.31,47792,17.38,72832.3,-1.99,-5.61,-5.51,0,*5D
1494255724.58,47793,17.38,72834.3,-1.99,-5.73,-5.61,0,*5C
1494255725.84,47794,17.38,72834.8,-1.99,-5.77,-5.73,0,*5C
1494255727.04,47795,17.38,72836.5,-1.97,-5.47,-5.47,0,*57
1494255728.26,47796,17.38,72838.3,-1.97,-5.97,-5.93,0,*50
1494255729.47,47797,17.38,72834.8,-1.97,-6.05,-5.93,0,*59
1494255730.66,47798,17.38,72846.3,-1.97,-6.47,-6.13,0,*5B
1494255731.88,47799,17.38,72840.8,-1.97,-7.15,-6.63,0,*5B
1494255733.09,47800,17.38,72836.5,-1.97,-7.31,-6.77,0,*57
1494255734.3,47801,17.38,72844.0,-1.97,-7.05,-6.39,0,*5B
1494255735.53,47802,17.38,72844.0,-1.95,-6.09,-5.55,0,*5E
1494255736.81,47803,17.38,72842.8,-1.99,-6.19,-5.89,0,*53
1494255738.03,47804,17.38,72846.0,-1.99,-6.13,-5.97,0,*51
1494255739.25,47805,17.38,72840.8,-1.99,-6.55,-6.09,0,*56
1494255740.46,47806,17.38,72850.0,-1.99,-6.69,-6.39,0,*59
1494255741.65,47807,17.38,72858.0,-2.01,-6.69,-6.09,0,*59
1494255742.91,47808,17.38,72850.8,-1.99,-6.27,-5.77,0,*54
1494255744.16,47809,17.38,72854.5,-2.01,-6.27,-5.89,0,*56
1494255745.38,47810,17.38,72850.3,-2.01,-6.19,-6.13,0,*53
1494255746.63,47811,17.38,72844.0,-2.01,-6.19,-5.85,0,*5E
1494255747.88,47812,17.38,72846.0,-2.01,-5.85,-5.61,0,*51
1494255749.1,47813,17.38,72840.3,-2.01,-5.77,-5.35,0,*5C
1494255750.35,47814,17.38,72840.5,-2.01,-5.65,-5.23,0,*5F
1494255751.57,47815,17.38,72844.5,-2.01,-5.39,-5.11,0,*56
1494255752.83,47816,17.38,72844.0,-1.99,-5.47,-5.07,0,*59
1494255754.1,47817,17.38,72838.8,-1.99,-5.73,-5.11,0,*58
1494255755.35,47818,17.38,72836.3,-1.99,-5.47,-5.11,0,*50
1494255756.59,47819,17.38,72842.0,-1.99,-5.31,-4.99,0,*51
1494255757.81,47820,17.38,72836.3,-1.97,-5.69,-5.35,0,*5F
1494255759.06,47821,17.38,72828.8,-1.95,-5.85,-5.47,0,*5B
1494255760.34,47822,17.38,72834.5,-1.99,-5.31,-5.11,0,*58
1494255761.61,47823,17.38,72838.5,-1.99,-5.11,-5.07,0,*5C
1494255762.86,47824,17.38,72842.8,-1.97,-5.03,-5.03,0,*52
1494255764.1,47825,17.38,72840.0,-1.97,-5.81,-5.73,0,*5E
1494255765.33,47826,17.38,72832.8,-1.97,-7.01,-7.05,0,*54
1494255766.6,47827,17.38,72828.0,-1.99,-7.05,-7.05,0,*5F
1494255767.79,47828,17.38,72826.0,-2.01,-6.13,-6.09,0,*59
1494255769.01,47829,17.38,72830.0,-2.01,-4.99,-5.07,0,*55
1494255770.22,47830,17.38,72830.0,-2.05,-5.11,-4.99,0,*5E
1494255771.48,47831,17.38,72832.5,-2.05,-5.15,-5.15,0,*5E
1494255772.72,47832,17.38,72828.8,-2.01,-4.85,-4.81,0,*5D
1494255773.96,47833,17.38,72820.3,-1.99,-4.99,-4.85,0,*57
1494255775.21,47834,17.38,72814.5,-2.01,-5.23,-5.23,0,*5F
1494255776.43,47835,17.38,72822.5,-1.99,-4.99,-4.99,0,*5C
1494255777.67,47836,17.38,72828.0,-1.99,-4.99,-4.93,0,*55
1494255778.95,47837,17.38,72832.0,-1.99,-5.07,-5.07,0,*5E
1494255780.19,47838,17.38,72840.0,-1.97,-5.03,-4.93,0,*57
1494255781.44,47839,17.38,72842.0,-1.97,-5.03,-5.03,0,*5E
1494255782.68,47840,17.38,72840.5,-1.97,-5.19,-5.19,0,*50
1494255783.92,47841,17.38,72836.8,-1.97,-4.93,-4.89,0,*5A
1494255785.15,47842,17.38,72838.0,-1.97,-4.81,-4.77,0,*5B
1494255786.42,47843,17.38,72840.8,-1.95,-4.77,-4.81,0,*58
1494255787.65,47844,17.38,72836.3,-1.97,-4.81,-4.77,0,*5D
1494255788.93,47845,17.38,72838.0,-1.95,-5.03,-4.89,0,*54
1494255790.2,47846,17.38,72842.3,-1.95,-4.93,-5.03,0,*5C
1494255791.47,47847,17.38,72840.5,-1.95,-4.93,-4.81,0,*56
1494255792.73,47848,17.38,72834.3,-1.95,-4.93,-4.81,0,*59
1494255794.01,47849,17.38,72832.0,-1.95,-5.03,-4.89,0,*58
1494255795.27,47850,17.38,72838.0,-1.95,-4.77,-4.69,0,*5C
1494255796.51,47851,17.38,72838.0,-1.93,-4.73,-4.73,0,*54
1494255797.7,47852,17.38,72836.0,-1.93,-4.53,-4.53,0,*57
1494255798.92,47853,17.38,72842.3,-1.91,-4.61,-4.61,0,*54
1494255800.11,47854,17.38,72838.5,-1.93,-4.99,-4.99,0,*51
1494255801.35,47855,17.38,72836.0,-1.91,-4.99,-4.89,0,*53
1494255802.58,47856,17.38,72834.3,-1.91,-4.65,-4.61,0,*55
1494255803.77,47857,17.38,72830.8,-1.89,-4.45,-4.37,0,*5C
1494255804.97,47858,17.38,72830.8,-1.87,-4.45,-4.45,0,*58
1494255806.21,47859,17.38,72838.5,-1.89,-4.73,-4.69,0,*5C
1494255807.46,47860,17.38,72838.3,-1.89,-5.07,-5.11,0,*5A
1494255808.67,47861,17.38,72836.0,-1.87,-4.99,-4.99,0,*52
1494255809.91,47862,17.38,72834.5,-1.89,-4.81,-4.69,0,*59
1494255811.17,47863,17.38,72832.8,-1.87,-4.69,-4.77,0,*5F
1494255812.37,47864,17.38,72838.8,-1.89,-4.61,-4.61,0,*59
1494255813.63,47865,17.38,72828.5,-1.87,-4.93,-5.03,0,*5E
1494255814.9,47866,17.38,72830.0,-1.87,-5.03,-4.93,0,*5D
1494255816.11,47867,17.38,72832.8,-1.89,-4.93,-4.99,0,*50
1494255817.38,47868,17.38,72834.0,-1.87,-5.03,-4.93,0,*53
1494255818.62,47869,17.38,72836.8,-1.89,-4.85,-4.85,0,*54
1494255819.86,47870,17.38,72838.3,-1.89,-4.69,-4.69,0,*5C
1494255821.09,47871,17.38,72842.0,-1.89,-4.85,-4.81,0,*59
1494255822.33,47872,17.38,72836.3,-1.89,-4.77,-4.77,0,*5E
1494255823.55,47873,17.38,72842.0,-1.89,-4.99,-5.07,0,*59
1494255824.83,47874,17.38,72834.0,-1.87,-5.23,-5.23,0,*56
1494255826.05,47875,17.38,72832.5,-1.87,-5.47,-5.47,0,*57
1494255827.24,47876,17.38,72832.8,-1.89,-5.35,-5.47,0,*5F
1494255828.49,47877,17.38,72838.0,-1.89,-5.19,-5.11,0,*53
1494255829.74,47878,17.38,72830.0,-1.89,-5.23,-5.27,0,*50
1494255830.96,47879,17.38,72832.3,-1.87,-5.55,-5.47,0,*58
1494255832.19,47880,17.38,72834.5,-1.89,-5.51,-5.61,0,*50
1494255833.38,47881,17.38,72830.0,-1.89,-6.01,-5.97,0,*5E
1494255834.58,47882,17.38,72830.0,-1.89,-5.47,-5.47,0,*51
1494255835.78,47883,17.38,72826.8,-1.89,-5.51,-5.51,0,*50
1494255837.03,47884,17.38,72830.0,-1.89,-5.19,-5.07,0,*58
1494255838.27,47885,17.38,72834.0,-1.91,-5.27,-5.43,0,*5D
1494255839.52,47886,17.38,72834.0,-1.91,-5.31,-5.43,0,*59
1494255840.74,47887,17.38,72830.0,-1.89,-5.27,-5.47,0,*52
1494255841.93,47888,17.38,72836.5,-1.89,-5.35,-5.39,0,*57
1494255843.13,47889,17.38,72832.5,-1.89,-5.51,-5.51,0,*5A
1494255844.33,47890,17.38,72828.5,-1.89,-5.51,-5.51,0,*52
1494255845.58,47891,17.38,72840.3,-1.87,-5.97,-5.93,0,*59
1494255846.85,47892,17.38,72840.0,-1.87,-5.93,-5.73,0,*50
1494255848.09,47893,17.38,72834.0,-1.85,-6.27,-5.81,0,*52
1494255849.37,47894,17.38,72836.8,-1.83,-5.65,-5.15,0,*5B
1494255850.59,47895,17.38,72826.8,-1.83,-6.31,-5.97,0,*52
1494255851.84,47896,17.38,72832.5,-1.83,-5.51,-5.19,0,*52
1494255853.09,47897,17.38,72830.8,-1.81,-5.27,-4.89,0,*58
1494255854.28,47898,17.38,72826.3,-1.81,-4.99,-4.65,0,*51
1494255855.49,47899,17.38,72828.8,-1.81,-4.77,-4.57,0,*51
1494255856.72,47900,17.38,72832.8,-1.77,-4.65,-4.33,0,*58
1494255857.99,47901,17.38,72824.3,-1.77,-4.81,-4.69,0,*5C
1494255859.21,47902,17.38,72824.5,-1.75,-4.69,-4.57,0,*56
1494255860.43,47903,17.38,72830.8,-1.75,-4.69,-4.57,0,*57
1494255861.68,47904,17.38,72826.8,-1.75,-4.81,-4.81,0,*5D
1494255862.9,47905,17.38,72830.0,-1.73,-4.53,-4.53,0,*5A
1494255864.11,47906,17.38,72828.5,-1.75,-4.69,-4.45,0,*51
1494255865.34,47907,17.38,72836.0,-1.73,-4.61,-4.53,0,*59
1494255866.6,47908,17.31,72830.3,-1.73,-4.73,-4.73,0,*57
1494255867.84,47909,17.38,72834.8,-1.73,-4.73,-4.61,0,*55
1494255869.07,47910,17.38,72822.0,-1.71,-4.99,-5.03,0,*5E
1494255870.33,47911,17.38,72822.3,-1.69,-4.85,-4.77,0,*59
1494255871.61,47912,17.38,72828.8,-1.69,-4.73,-4.69,0,*5C
1494255872.86,47913,17.38,72830.8,-1.71,-5.07,-5.03,0,*5B
1494255874.09,47914,17.38,72828.8,-1.71,-4.73,-4.61,0,*5B
1494255875.37,47915,17.38,72830.0,-1.69,-5.03,-5.03,0,*50
1494255876.61,47916,17.38,72830.5,-1.71,-4.77,-4.77,0,*5A
1494255877.81,47917,17.31,72828.5,-1.71,-4.53,-4.49,0,*50
1494255879.0,47918,17.38,72834.5,-1.71,-4.37,-4.37,0,*54
1494255880.23,47919,17.38,72834.0,-1.69,-4.33,-4.25,0,*5B
1494255881.45,47920,17.38,72832.8,-1.69,-4.45,-4.37,0,*53
1494255882.67,47921,17.38,72834.8,-1.69,-4.13,-4.13,0,*57
1494255883.9,47922,17.31,72838.3,-1.69,-4.25,-4.25,0,*54
1494255885.11,47923,17.38,72830.3,-1.67,-4.33,-4.25,0,*5C
1494255886.33,47924,17.38,72824.0,-1.67,-4.69,-4.57,0,*51
1494255887.59,47925,17.38,72832.8,-1.65,-4.81,-4.77,0,*56
1494255888.84,47926,17.38,72834.3,-1.67,-4.81,-4.69,0,*58
1494255890.07,47927,17.38,72830.3,-1.65,-4.65,-4.57,0,*5C
1494255891.26,47928,17.38,72836.3,-1.67,-4.61,-4.45,0,*56
1494255892.49,47929,17.31,72832.3,-1.65,-4.33,-4.21,0,*50
1494255893.69,47930,17.31,72826.5,-1.63,-4.37,-4.29,0,*52
1494255894.92,47931,17.38,72832.8,-1.65,-4.29,-4.21,0,*52
1494255896.14,47932,17.38,72834.5,-1.65,-4.29,-4.33,0,*52
1494255897.41,47933,17.38,72836.3,-1.65,-4.93,-4.93,0,*58
1494255898.67,47934,17.38,72832.3,-1.65,-4.93,-4.93,0,*5F
1494255899.94,47935,17.38,72838.3,-1.65,-4.81,-4.81,0,*5E
1494255901.22,47936,17.31,72838.0,-1.65,-5.19,-5.19,0,*5D
1494255902.48,47937,17.38,72846.3,-1.65,-4.69,-4.69,0,*5C
1494255903.7,47938,17.38,72844.0,-1.65,-4.45,-4.53,0,*54
1494255904.95,47939,17.31,72840.8,-1.67,-4.69,-4.69,0,*50
1494255906.17,47940,17.38,72842.0,-1.65,-4.41,-4.41,0,*5C
1494255907.43,47941,17.38,72842.5,-1.65,-4.69,-4.69,0,*5D
1494255908.7,47942,17.38,72838.5,-1.65,-4.81,-4.81,0,*5E
1494255909.93,47943,17.31,72838.0,-1.61,-4.53,-4.41,0,*58
1494255911.13,47944,17.31,72836.0,-1.63,-4.61,-4.61,0,*5E
1494255912.37,47945,17.38,72838.5,-1.63,-4.85,-4.73,0,*56
1494255913.57,47946,17.31,72838.8,-1.63,-4.65,-4.65,0,*5C
1494255914.8,47947,17.31,72840.0,-1.65,-4.57,-4.53,0,*5F
1494255916.02,47948,17.31,72842.3,-1.65,-4.45,-4.41,0,*50
1494255917.22,47949,17.38,72844.0,-1.63,-4.25,-4.13,0,*56
1494255918.42,47950,17.31,72842.0,-1.63,-4.61,-4.65,0,*5F
1494255919.62,47951,17.31,72842.8,-1.63,-4.49,-4.53,0,*51
1494255920.9,47952,17.38,72844.0,-1.61,-4.93,-5.03,0,*53
1494255922.14,47953,17.31,72846.5,-1.63,-4.93,-4.89,0,*53
1494255923.37,47954,17.38,72842.0,-1.61,-4.61,-4.61,0,*5D
1494255924.59,47955,17.31,72836.0,-1.63,-4.73,-4.65,0,*59
1494255925.87,47956,17.31,72836.0,-1.61,-4.93,-4.89,0,*54
1494255927.06,47957,17.38,72840.8,-1.63,-4.53,-4.49,0,*57
1494255928.29,47958,17.31,72836.3,-1.61,-4.61,-4.61,0,*51
1494255929.54,47959,17.31,72840.5,-1.61,-4.73,-4.65,0,*57
1494255930.82,47960,17.31,72836.0,-1.61,-5.07,-5.19,0,*55
1494255932.1,47961,17.31,72832.8,-1.61,-5.03,-4.89,0,*58
1494255933.35,47962,17.31,72836.0,-1.63,-4.73,-4.73,0,*5A
1494255934.62,47963,17.38,72842.5,-1.61,-4.77,-4.89,0,*58
1494255935.9,47964,17.31,72832.3,-1.61,-5.07,-5.07,0,*5E
1494255937.18,47965,17.31,72836.8,-1.61,-5.27,-5.19,0,*52
1494255938.38,47966,17.31,72836.3,-1.63,-5.39,-5.43,0,*53
1494255939.63,47967,17.31,72834.3,-1.63,-4.93,-4.89,0,*54
1494255940.89,47968,17.31,72826.0,-1.63,-5.31,-5.27,0,*57
1494255942.16,47969,17.31,72828.3,-1.65,-5.11,-5.11,0,*57
1494255943.41,47970,17.31,72838.5,-1.65,-4.99,-5.07,0,*59
1494255944.63,47971,17.31,72828.3,-1.63,-5.27,-5.39,0,*57
1494255945.91,47972,17.31,72822.5,-1.65,-5.19,-5.11,0,*55
1494255947.18,47973,17.31,72810.8,-1.65,-4.93,-5.07,0,*50
1494255948.43,47974,17.31,72842.0,-1.63,-4.93,-5.03,0,*55
1494255949.68,47975,17.31,72838.5,-1.65,-5.23,-5.35,0,*5D
1494255950.92,47976,17.31,72836.3,-1.67,-5.73,-5.93,0,*55
1494255952.13,47977,17.31,72832.0,-1.67,-6.55,-6.55,0,*5A
1494255953.33,47978,17.31,72826.8,-1.71,-6.47,-6.47,0,*52
1494255954.61,47979,17.31,72818.3,-1.69,-6.19,-6.19,0,*5A
1494255955.83,47980,17.31,72822.0,-1.69,-5.39,-5.35,0,*50
1494255957.03,47981,17.31,72826.5,-1.71,-5.39,-5.39,0,*54
1494255958.22,47982,17.31,72826.5,-1.71,-5.43,-5.43,0,*57
1494255959.47,47983,17.31,72826.8,-1.73,-5.39,-5.19,0,*56
1494255960.7,47984,17.31,72822.5,-1.71,-5.39,-5.27,0,*5E
1494255961.95,47985,17.31,72816.5,-1.69,-5.35,-5.15,0,*5B
1494255963.21,47986,17.31,72826.8,-1.71,-5.31,-5.19,0,*59
1494255964.44,47987,17.31,72830.5,-1.71,-5.39,-5.31,0,*5A
1494255965.63,47988,17.31,72828.0,-1.71,-6.05,-6.05,0,*5D
1494255966.85,47989,17.31,72832.5,-1.73,-5.97,-5.97,0,*5E
1494255968.07,47990,17.31,72836.3,-1.73,-6.31,-6.09,0,*5D
1494255969.27,47991,17.31,72818.8,-1.75,-6.47,-6.35,0,*54
1494255970.54,47992,17.31,72814.8,-1.73,-5.93,-5.93,0,*54
1494255971.8,47993,17.31,72816.5,-1.75,-5.81,-5.61,0,*5D
1494255973.08,47994,17.38,72838.3,-1.77,-5.85,-5.81,0,*52
1494255974.34,47995,17.31,72832.8,-1.77,-5.43,-5.23,0,*51
1494255975.57,47996,17.31,72824.0,-1.77,-5.55,-5.47,0,*57
1494255976.77,47997,17.31,72826.8,-1.81,-5.47,-5.35,0,*59
1494255978.05,47998,17.31,72822.3,-1.77,-5.61,-5.61,0,*5A
1494255979.33,47999,17.31,72820.0,-1.77,-5.85,-5.69,0,*59
1494255980.55,48000,17.31,72828.3,-1.81,-5.65,-5.43,0,*50
1494255981.77,48001,17.31,72840.8,-1.77,-5.47,-5.43,0,*58
1494255982.99,48002,17.31,72840.3,-1.81,-5.97,-5.69,0,*57
1494255984.21,48003,17.31,72842.3,-1.81,-7.39,-6.47,0,*5F
1494255985.46,48004,17.31,72842.5,-1.81,-6.97,-5.93,0,*57
1494255986.7,48005,17.31,72838.0,-1.83,-6.47,-5.77,0,*53
1494255987.96,48006,17.31,72836.8,-1.83,-5.93,-5.55,0,*5A
1494255989.17,48007,17.31,72832.0,-1.85,-5.73,-5.43,0,*54
1494255990.4,48008,17.31,72824.8,-1.83,-5.51,-5.39,0,*50
1494255991.62,48009,17.31,72814.8,-1.85,-5.65,-5.55,0,*5A
1494255992.9,48010,17.31,72830.0,-1.83,-5.89,-5.69,0,*59
1494255994.16,48011,17.31,72836.0,-1.83,-5.27,-5.55,0,*53
1494255995.39,48012,17.31,72832.0,-1.85,-5.73,-5.69,0,*58
1494255996.63,48013,17.31,72836.8,-1.85,-5.73,-5.69,0,*59
1494255997.88,48014,17.31,72838.5,-1.85,-5.69,-5.69,0,*55
1494255999.15,48015,17.31,72828.5,-1.83,-5.69,-5.65,0,*5E
1494256000.34,48016,17.31,72832.5,-1.85,-5.43,-5.35,0,*56
1494256001.55,48017,17.31,72836.3,-1.85,-5.55,-5.55,0,*56
1494256002.74,48018,17.31,72842.8,-1.85,-5.35,-5.35,0,*59
1494256003.96,48019,17.31,72842.8,-1.83,-5.39,-5.39,0,*5E
1494256005.21,48020,17.31,72840.5,-1.85,-5.31,-5.31,0,*52
1494256006.46,48021,17.31,72850.5,-1.85,-5.03,-4.93,0,*5B
1494256007.7,48022,17.31,72840.5,-1.85,-5.03,-4.93,0,*58
1494256008.95,48023,17.31,72842.3,-1.85,-5.31,-5.31,0,*51
1494256010.22,48024,17.31,72844.5,-1.83,-4.89,-4.77,0,*51
1494256011.5,48025,17.31,72848.0,-1.83,-4.89,-4.81,0,*59
1494256012.77,48026,17.31,72846.0,-1.83,-4.89,-4.89,0,*52
1494256014.0,48027,17.31,72840.8,-1.83,-4.61,-4.53,0,*52
1494256015.19,48028,17.31,72832.3,-1.81,-4.65,-4.53,0,*5B
1494256016.39,48029,17.31,72834.8,-1.81,-4.61,-4.53,0,*5E
1494256017.65,48030,17.31,72840.5,-1.83,-4.77,-4.77,0,*55
1494256018.9,48031,17.31,72838.5,-1.81,-5.27,-5.31,0,*51
1494256020.17,48032,17.31,72836.8,-1.77,-4.81,-4.81,0,*5C
1494256021.39,48033,17.31,72836.5,-1.81,-4.89,-4.99,0,*55
1494256022.61,48034,17.31,72836.8,-1.81,-4.99,-4.89,0,*52
1494256023.88,48035,17.31,72834.3,-1.77,-5.11,-5.19,0,*53
1494256025.17,48036,17.31,72838.5,-1.77,-5.03,-5.07,0,*5C
1494256026.42,48037,17.31,72838.8,-1.81,-5.27,-5.27,0,*50
1494256027.67,48038,17.31,72834.5,-1.77,-5.43,-5.31,0,*53
1494256028.95,48039,17.31,72842.0,-1.77,-4.89,-4.81,0,*5F
1494256030.22,48040,17.31,72836.5,-1.77,-4.93,-4.69,0,*5C
1494256031.47,48041,17.31,72846.3,-1.77,-4.89,-4.57,0,*5B
1494256032.74,48042,17.31,72838.0,-1.77,-4.93,-4.77,0,*51
1494256033.96,48043,17.31,72842.5,-1.75,-5.35,-5.19,0,*56
1494256035.25,48044,17.31,72842.5,-1.77,-5.31,-5.07,0,*58
1494256036.48,48045,17.31,72842.0,-1.75,-5.43,-5.31,0,*5B
1494256037.7,48046,17.31,72836.8,-1.75,-5.61,-5.47,0,*59
1494256038.95,48047,17.31,72838.8,-1.75,-5.19,-5.07,0,*53
1494256040.23,48048,17.31,72836.3,-1.73,-4.89,-4.81,0,*5D
1494256041.51,48049,17.31,72828.3,-1.77,-5.07,-4.89,0,*57
1494256042.78,48050,17.31,72832.3,-1.73,-5.03,-4.77,0,*5E
1494256044.04,48051,17.31,72836.5,-1.75,-5.23,-5.23,0,*5B
1494256045.3,48052,17.31,72824.0,-1.75,-5.23,-5.19,0,*51
1494256046.54,48053,17.31,72824.5,-1.75,-4.81,-4.77,0,*50
1494256047.8,48054,17.31,72832.3,-1.75,-5.07,-5.07,0,*5E
1494256049.03,48055,17.31,72834.0,-1.75,-5.23,-5.35,0,*58
1494256050.24,48056,17.31,72832.0,-1.75,-5.47,-5.55,0,*5F
1494256051.46,48057,17.31,72832.0,-1.81,-5.89,-5.97,0,*59
1494256052.73,48058,17.31,72834.8,-1.77,-5.73,-5.69,0,*5B
1494256053.99,48059,17.31,72830.5,-1.77,-5.55,-5.61,0,*56
1494256055.24,48060,17.31,72830.5,-1.81,-5.15,-5.03,0,*55
1494256056.48,48061,17.31,72826.0,-1.81,-4.85,-4.77,0,*5E
1494256057.75,48062,17.31,72818.5,-1.77,-5.11,-5.11,0,*59
1494256058.97,48063,17.31,72822.5,-1.81,-5.03,-4.99,0,*53
1494256060.19,48064,17.31,72816.3,-1.81,-5.07,-5.43,0,*56
1494256061.44,48065,17.31,72820.8,-1.81,-5.11,-5.03,0,*54
1494256062.69,48066,17.31,72824.8,-1.81,-4.89,-4.89,0,*54
1494256063.94,48067,17.31,72824.8,-1.81,-5.03,-5.15,0,*52
1494256065.18,48068,17.31,72828.3,-1.81,-5.19,-5.19,0,*5A
1494256066.39,48069,17.31,72824.8,-1.81,-5.55,-5.55,0,*5B
1494256067.64,48070,17.31,72826.0,-1.81,-5.81,-5.81,0,*53
1494256068.86,48071,17.31,72830.8,-1.81,-5.31,-5.39,0,*5A
1494256070.13,48072,17.31,72828.0,-1.77,-4.89,-4.81,0,*50
1494256071.4,48073,17.31,72830.5,-1.77,-4.77,-4.77,0,*59
1494256072.69,48074,17.31,72834.3,-1.77,-5.07,-5.07,0,*5E
1494256073.97,48075,17.31,72838.0,-1.77,-5.07,-5.07,0,*5F
1494256075.18,48076,17.31,72830.8,-1.81,-5.55,-5.55,0,*55
1494256076.45,48077,17.31,72828.3,-1.77,-4.81,-4.69,0,*5B
1494256077.7,48078,17.31,72822.3,-1.77,-4.69,-4.57,0,*5F
1494256078.93,48079,17.31,72824.3,-1.77,-4.57,-4.45,0,*50
1494256080.13,48080,17.31,72828.0,-1.75,-4.53,-4.57,0,*53
1494256081.37,48081,17.31,72834.3,-1.75,-4.77,-4.77,0,*56
1494256082.56,48082,17.31,72832.8,-1.75,-5.43,-5.43,0,*55
1494256083.79,48083,17.31,72838.0,-1.75,-5.47,-5.69,0,*58
1494256084.99,48084,17.31,72836.8,-1.75,-5.97,-6.01,0,*5F
1494256086.27,48085,17.31,72834.0,-1.77,-5.61,-5.61,0,*50
1494256087.51,48086,17.31,72838.8,-1.81,-5.69,-5.77,0,*55
1494256088.76,48087,17.31,72840.5,-1.81,-5.15,-5.03,0,*5C
1494256090.04,48088,17.31,72838.0,-1.77,-4.89,-4.89,0,*5D
1494256091.32,48089,17.31,72828.3,-1.77,-5.19,-5.23,0,*55
1494256092.6,48090,17.31,72816.8,-1.77,-5.19,-5.19,0,*54
1494256093.83,48091,17.31,72824.3,-1.77,-4.65,-4.57,0,*54
1494256095.1,48092,17.31,72812.3,-1.77,-4.77,-5.11,0,*57
1494256096.35,48093,17.31,72820.8,-1.77,-4.93,-5.43,0,*5B
1494256097.57,48094,17.31,72820.8,-1.75,-4.93,-5.55,0,*59
1494256098.84,48095,17.31,72828.0,-1.73,-5.07,-5.69,0,*5D
1494256100.05,48096,17.31,72824.3,-1.75,-5.47,-6.35,0,*56
1494256101.27,48097,17.31,72826.3,-1.75,-5.69,-6.59,0,*51
1494256102.5,48098,17.31,72830.5,-1.75,-5.89,-6.77,0,*5C
1494256103.72,48099,17.31,72840.3,-1.73,-6.05,-7.15,0,*59
1494256104.95,48100,17.31,72836.3,-1.75,-6.39,-7.61,0,*52
1494256106.19,48101,17.31,72836.0,-1.73,-6.59,-7.65,0,*57
1494256107.44,48102,17.31,72838.5,-1.73,-6.85,-7.77,0,*56
1494256108.71,48103,17.31,72838.0,-1.73,-7.01,-7.69,0,*55
1494256109.94,48104,17.31,72832.3,-1.75,-7.43,-7.83,0,*56
1494256111.18,48105,17.31,72834.3,-1.73,-7.49,-7.57,0,*52
1494256112.41,48106,17.31,72832.5,-1.75,-8.51,-8.25,0,*5B
1494256113.64,48107,17.31,72830.8,-1.73,-8.33,-7.95,0,*5C